Hourly Data Report for November 12, 2020

L'ASSOMPTION
QUEBEC
Current Station Operator: ECCC - MSC

45°48'34.000" N
73°26'05.000" W
21.00 m
7014160
71524
WEW

Download Data

Hourly Data (November 2020)
Hourly Data Report for November 12, 2020
TIME
LST
Temp Definition
°C
Dew Point Definition
°C
Rel Hum Definition
%
Precip. Amount Definition
mm

Wind Dir Definition
10's deg

Wind Spd Definition
km/h
Visibility Definition
km
Stn Press Definition
kPa
Hmdx Definition


Wind Chill Definition


Weather Definition


00:00 8.9 2.3 63 0.0 30 11   101.03     LegendNANA
01:00 7.5 1.1 64 0.0 26 7   101.14     LegendNANA
02:00 5.9 1.0 71 0.0 24 6   101.23     LegendNANA
03:00 6.0 -0.3 64 0.0 26 8   101.30     LegendNANA
04:00 4.8 -0.1 71 0.0 25 6   101.38     LegendNANA
05:00 3.4 0.2 79 0.0 26 4   101.47     LegendNANA
06:00 3.2 0.4 82 0.0 25 5   101.52     LegendNANA
07:00 2.7 0.0 82 0.0 26 7   101.54     LegendNANA
08:00 3.5 0.5 81 0.0 23 5   101.68     LegendNANA
09:00 5.8 0.9 70 0.0 26 9   101.74     LegendNANA
10:00 7.4 0.5 61 0.0 27 12   101.77     LegendNANA
11:00 7.8 -0.8 55 0.0 30 13   101.79     LegendNANA
12:00 8.5 -1.4 50 0.0 27 11   101.71     LegendNANA
13:00 8.1 -1.0 53 0.0 28 12   101.71     LegendNANA
14:00 9.1 -0.4 52 0.0 26 7   101.75     LegendNANA
15:00 8.1 -1.2 52 0.0 28 10   101.82     LegendNANA
16:00 7.3 -1.4 54 0.0 27 7   101.89     LegendNANA
17:00 5.9 -1.5 59 0.0 28 3   101.92     LegendNANA
18:00 4.2 -0.4 72 0.0 17 2   101.88     LegendNANA
19:00 2.1 -0.8 81 0.0   0   101.85     LegendNANA
20:00 1.0 -1.0 86 0.0 0 1   101.90     LegendNANA
21:00 0.0 -1.5 89 0.0 22 2   101.97   -1 LegendNANA
22:00 -1.3 -2.6 91 0.0   0   101.99     LegendNANA
23:00 -2.0 -2.8 94 0.0   0   101.95     LegendNANA

Notes on Data Quality.

Legend

  • E = Estimated
  • M = Missing
  • NA = Not Available*
  • [empty] = Indicates an unobserved value
Date modified: